Location: Blackrock Ranger Station
(36.0936°N, 118.2611°W)
Time: 22:27:46
(UTC-07:00)

STRAND 1 - Visible Passes

Search period start: 08 June 2026 00:00
Search period end: 18 June 2026 00:00
Orbit: 763 x 773 km, 98.4° (Epoch: 8 June)

Date Brightness Start Highest point End Pass type
(mag) Time Alt. Az. Time Alt. Az. Time Alt. Az.
8 Jun ? 04:56:28 10° ESE 05:00:24 23° ENE 05:04:22 10° NNE visible
9 Jun ? 04:24:10 10° ENE 04:24:53 10° ENE 04:25:36 10° NE visible
11 Jun ? 04:48:04 10° ESE 04:51:36 19° ENE 04:55:09 10° NNE visible
14 Jun ? 04:39:48 10° E 04:42:48 16° ENE 04:45:48 10° NNE visible
16 Jun ? 05:05:17 10° SE 05:09:36 28° ENE 05:13:55 10° N visible
17 Jun ? 04:31:44 10° E 04:34:00 13° ENE 04:36:17 10° NE visible
